Weather History for Boonville, MO

Change the Weather History Date:

Friday, June 7, 2013

  Actual Average Record
Temperature  
Mean Temperature 64 °F -  
Max Temperature 73 °F 81 °F 93 °F (1980)
Min Temperature 54 °F 60 °F 53 °F (1966)
Degree Days  
Heating Degree Days 2    
Growing Degree Days 14 (Base 50)    
Moisture  
Dew Point 52 °F    
Average Humidity 66    
Maximum Humidity 97    
Minimum Humidity 42    
Precipitation  
Precipitation 0.00 in - - ()
Sea Level Pressure  
Sea Level Pressure 29.95 in    
Wind  
Wind Speed 4 mph (NNW)    
Max Wind Speed 12 mph    
Max Gust Speed 16 mph    
Visibility 10 miles    
Events      
Averages and records for this station are not official NWS values.
T = Trace of Precipitation, MM = Missing Value Source: NWS Daily Summary

Daily Weather History Graph

Daily Weather History Graph

Search for Another Location

Airport:

Trip Planner

Search our weather history database for the weather conditions in past years. The results will help you decide how hot, cold, wet, or windy it might be!

Date:

Astronomy

Jun. 07, 2013 Rise Set
Actual Time 5:45 AM CDT 8:34 PM CDT
Civil Twilight 5:13 AM CDT 9:06 PM CDT
Nautical Twilight 4:33 AM CDT 9:46 PM CDT
Astronomical Twilight 3:48 AM CDT 10:31 PM CDT
Moon 5:07 AM CDT (6/7) 7:49 PM CDT (6/7)
Length of Visible Light 15h 52m
Length of Day
14h 49m
Waning Crescent, 1% of the Moon is Illuminated
Jun 7
Waning Crescent
Jun 8
New
Jun 16
First Quarter
Jun 23
Full
Jun 29
Last Quarter

Hourly Weather History & Observations

Time (CDT) Temp. Dew Point Humidity Pressure Visibility Wind Dir Wind Speed Gust Speed Precip Events Conditions
12:15 AM 60.6 °F 52.0 °F 73% 29.94 in 10.0 mi NNW 3.5 mph - N/A   Clear
12:35 AM 60.3 °F 52.2 °F 75% 29.94 in 10.0 mi Calm Calm - N/A   Clear
12:55 AM 60.4 °F 52.2 °F 74% 29.93 in 10.0 mi NNW 3.5 mph - N/A   Clear
1:15 AM 59.7 °F 52.3 °F 77% 29.94 in 10.0 mi NW 3.5 mph - N/A   Clear
1:35 AM 59.0 °F 52.7 °F 80% 29.94 in 10.0 mi NNW 3.5 mph - N/A   Clear
1:55 AM 59.4 °F 52.9 °F 79% 29.94 in 10.0 mi NNW 3.5 mph - N/A   Clear
2:15 AM 59.4 °F 52.7 °F 79% 29.94 in 10.0 mi Calm Calm - N/A   Clear
2:35 AM 58.6 °F 52.9 °F 81% 29.94 in 10.0 mi Calm Calm - N/A   Clear
2:55 AM 58.1 °F 53.2 °F 84% 29.94 in 10.0 mi North 3.5 mph - N/A   Clear
3:15 AM 57.4 °F 53.6 °F 87% 29.94 in 10.0 mi North 3.5 mph - N/A   Clear
3:35 AM 57.2 °F 53.4 °F 87% 29.94 in 10.0 mi North 3.5 mph - N/A   Clear
3:55 AM 56.8 °F 53.2 °F 88% 29.94 in 10.0 mi North 3.5 mph - N/A   Clear
4:15 AM 56.3 °F 53.6 °F 91% 29.94 in 10.0 mi NNW 3.5 mph - N/A   Clear
4:35 AM 56.1 °F 53.8 °F 92% 29.94 in 10.0 mi Calm Calm - N/A   Clear
4:55 AM 54.7 °F 53.4 °F 96% 29.94 in 10.0 mi NNW 3.5 mph - N/A   Clear
5:15 AM 54.9 °F 53.6 °F 96% 29.94 in 10.0 mi NNW 3.5 mph - N/A   Clear
5:35 AM 55.4 °F 53.4 °F 93% 29.95 in 10.0 mi North 3.5 mph - N/A   Clear
5:55 AM 54.3 °F 53.1 °F 95% 29.95 in 10.0 mi Calm Calm - N/A   Clear
6:15 AM 54.0 °F 53.2 °F 97% 29.96 in 10.0 mi Calm Calm - N/A   Clear
6:35 AM 54.5 °F 53.8 °F 97% 29.96 in 10.0 mi NW 4.6 mph - N/A   Clear
6:55 AM 56.7 °F 54.5 °F 92% 29.96 in 10.0 mi NNW 4.6 mph - N/A   Clear
7:15 AM 58.5 °F 55.0 °F 88% 29.97 in 10.0 mi NNW 4.6 mph - N/A   Clear
7:35 AM 59.5 °F 55.0 °F 85% 29.97 in 10.0 mi NNW 5.8 mph - N/A   Clear
7:55 AM 60.8 °F 55.6 °F 83% 29.97 in 10.0 mi North 6.9 mph - N/A   Clear
8:15 AM 62.2 °F 54.9 °F 77% 29.98 in 10.0 mi North 6.9 mph - N/A   Clear
8:35 AM 63.5 °F 53.8 °F 71% 29.98 in 10.0 mi North 10.4 mph - N/A   Clear
8:55 AM 64.8 °F 53.2 °F 66% 29.99 in 10.0 mi North 6.9 mph - N/A   Clear
9:15 AM 65.7 °F 52.9 °F 63% 29.98 in 10.0 mi NNW 8.1 mph - N/A   Clear
9:35 AM 66.6 °F 52.7 °F 61% 29.98 in 10.0 mi NNW 5.8 mph - N/A   Clear
9:55 AM 67.5 °F 51.8 °F 57% 29.98 in 10.0 mi NNW 9.2 mph - N/A   Clear
10:15 AM 68.0 °F 52.0 °F 56% 29.98 in 10.0 mi NNW 8.1 mph - N/A   Clear
10:35 AM 68.4 °F 51.3 °F 54% 29.98 in 10.0 mi NW 9.2 mph - N/A   Clear
10:55 AM 69.4 °F 52.5 °F 55% 29.98 in 10.0 mi NW 5.8 mph - N/A   Scattered Clouds
11:15 AM - - N/A% 29.98 in 10.0 mi NNW 11.5 mph 16.1 mph N/A   Unknown
11:35 AM 70.2 °F 50.2 °F 49% 29.98 in 10.0 mi NNW 9.2 mph - N/A   Scattered Clouds
11:55 AM 70.0 °F 50.0 °F 49% 29.98 in 10.0 mi NNW 9.2 mph - N/A   Scattered Clouds
12:15 PM 70.3 °F 49.8 °F 48% 29.98 in 10.0 mi NNW 10.4 mph - N/A   Scattered Clouds
12:35 PM 70.5 °F 49.1 °F 47% 29.97 in 10.0 mi WNW 10.4 mph 16.1 mph N/A   Scattered Clouds
12:55 PM 70.5 °F 49.6 °F 47% 29.96 in 10.0 mi NW 5.8 mph - N/A   Scattered Clouds
1:15 PM 70.9 °F 50.0 °F 48% 29.96 in 10.0 mi North 5.8 mph - N/A   Mostly Cloudy
1:35 PM 71.6 °F 50.2 °F 47% 29.96 in 10.0 mi NW 8.1 mph - N/A   Scattered Clouds
1:55 PM 71.6 °F 49.8 °F 46% 29.95 in 10.0 mi West 8.1 mph - N/A   Scattered Clouds
2:15 PM 72.0 °F 50.5 °F 47% 29.95 in 10.0 mi NNW 11.5 mph - N/A   Mostly Cloudy
2:35 PM 72.0 °F 51.1 °F 48% 29.94 in 10.0 mi North 9.2 mph - N/A   Mostly Cloudy
2:55 PM 71.1 °F 50.2 °F 48% 29.94 in 10.0 mi WNW 5.8 mph - N/A   Mostly Cloudy
3:15 PM 71.4 °F 49.6 °F 46% 29.94 in 10.0 mi NNW 4.6 mph - N/A   Scattered Clouds
3:35 PM 73.0 °F 50.2 °F 44% 29.93 in 10.0 mi NNW 6.9 mph - N/A   Mostly Cloudy
3:55 PM 72.5 °F 50.2 °F 45% 29.93 in 10.0 mi NW 8.1 mph - N/A   Mostly Cloudy
4:15 PM 73.6 °F 50.7 °F 45% 29.93 in 10.0 mi NNW 6.9 mph - N/A   Mostly Cloudy
4:35 PM 73.6 °F 48.9 °F 42% 29.93 in 10.0 mi NNW 8.1 mph - N/A   Scattered Clouds
4:55 PM 73.9 °F 49.8 °F 43% 29.92 in 10.0 mi NW 4.6 mph - N/A   Scattered Clouds
5:15 PM 72.3 °F 50.7 °F 46% 29.93 in 10.0 mi North 5.8 mph - N/A   Scattered Clouds
5:35 PM 73.0 °F 49.3 °F 43% 29.92 in 10.0 mi NNW 6.9 mph - N/A   Scattered Clouds
5:55 PM 72.9 °F 50.9 °F 46% 29.92 in 10.0 mi North 6.9 mph - N/A   Scattered Clouds
6:15 PM 72.9 °F 49.5 °F 44% 29.92 in 10.0 mi NW 4.6 mph - N/A   Scattered Clouds
6:35 PM 72.5 °F 48.7 °F 43% 29.92 in 10.0 mi WNW 4.6 mph - N/A   Clear
6:55 PM 72.3 °F 49.6 °F 45% 29.91 in 10.0 mi NW 5.8 mph - N/A   Scattered Clouds
7:15 PM 71.6 °F 50.4 °F 47% 29.91 in 10.0 mi NNW 6.9 mph - N/A   Clear
7:35 PM 70.5 °F 51.8 °F 51% 29.92 in 10.0 mi NNW 3.5 mph - N/A   Clear
7:55 PM 69.4 °F 51.4 °F 53% 29.92 in 10.0 mi Calm Calm - N/A   Clear
8:15 PM 68.0 °F 51.1 °F 55% 29.92 in 10.0 mi Calm Calm - N/A   Clear
8:35 PM 66.7 °F 51.4 °F 58% 29.92 in 10.0 mi NNE 3.5 mph - N/A   Clear
8:55 PM 65.7 °F 53.1 °F 64% 29.91 in 10.0 mi Calm Calm - N/A   Clear
9:15 PM 64.2 °F 54.0 °F 69% 29.92 in 10.0 mi Calm Calm - N/A   Clear
9:35 PM 63.7 °F 54.0 °F 71% 29.93 in 10.0 mi Calm Calm - N/A   Clear
9:55 PM 63.3 °F 52.9 °F 69% 29.94 in 10.0 mi Calm Calm - N/A   Clear
10:15 PM 62.6 °F 53.1 °F 71% 29.94 in 10.0 mi Calm Calm - N/A   Clear
10:35 PM 62.1 °F 53.6 °F 74% 29.94 in 10.0 mi Calm Calm - N/A   Clear
10:55 PM 59.7 °F 54.3 °F 82% 29.94 in 10.0 mi Calm Calm - N/A   Clear
11:15 PM 59.4 °F 54.3 °F 83% 29.94 in 10.0 mi Calm Calm - N/A   Clear
11:35 PM 59.0 °F 55.4 °F 88% 29.95 in 10.0 mi Calm Calm - N/A   Clear
11:55 PM 58.1 °F 55.9 °F 93% 29.95 in 10.0 mi Calm Calm - N/A   Clear